Weather History for Sandberg, CA

Change the Weather History Date:

Tuesday, December 17, 2013

  Actual Average Record
Temperature  
Mean Temperature 63 °F 42 °F  
Max Temperature 68 °F 47 °F 69 °F (1998)
Min Temperature 57 °F 36 °F 17 °F (1967)
Degree Days  
Heating Degree Days 2 23  
Month to date heating degree days 338 379  
Since 1 July heating degree days 892 1158  
Cooling Degree Days 0 0  
Month to date cooling degree days 0 0  
Year to date cooling degree days 1565 998  
Growing Degree Days 12 (Base 50)    
Moisture  
Dew Point 12 °F    
Average Humidity 15    
Maximum Humidity 17    
Minimum Humidity 12    
Precipitation  
Precipitation 0.00 in 0.08 in 5.61 in (1987)
Month to date precipitation T 1.00  
Year to date precipitation 3.61 11.08  
Since 1 July precipitation 0.70 2.60  
Sea Level Pressure  
Sea Level Pressure 30.15 in    
Wind  
Wind Speed 18 mph (ENE)    
Max Wind Speed 25 mph    
Max Gust Speed 32 mph    
Visibility 10 miles    
Events      
T = Trace of Precipitation, MM = Missing Value Source: NWS Daily Summary

Daily Weather History Graph

Daily Weather History Graph

Search for Another Location

Airport:

Trip Planner

Search our weather history database for the weather conditions in past years. The results will help you decide how hot, cold, wet, or windy it might be!

Date:

Astronomy

Dec. 17, 2013 Rise Set
Actual Time 6:56 AM PST 4:46 PM PST
Civil Twilight 6:28 AM PST 5:14 PM PST
Nautical Twilight 5:56 AM PST 5:45 PM PST
Astronomical Twilight 5:25 AM PST 6:16 PM PST
Moon 5:27 PM PST (12/17) 6:58 AM PST (12/17)
Length of Visible Light 10h 46m
Length of Day
9h 49m
Full, 100% of the Moon is Illuminated
Dec 17
Full
Dec 25
Last Quarter
Jan 1
New
Jan 7
First Quarter
Jan 15
Full

Hourly Weather History & Observations

Time (PST) Temp. Dew Point Humidity Pressure Visibility Wind Dir Wind Speed Gust Speed Precip Events Conditions
12:48 AM 57.9 °F 12.0 °F 16% 30.20 in 10.0 mi ENE 17.3 mph - N/A   Clear
1:48 AM 57.9 °F 10.9 °F 16% 30.20 in 10.0 mi ENE 19.6 mph - N/A   Clear
2:48 AM 59.0 °F 12.0 °F 16% 30.20 in 10.0 mi East 19.6 mph - N/A   Clear
3:48 AM 57.9 °F 10.9 °F 16% 30.18 in 10.0 mi ENE 21.9 mph 27.6 mph N/A   Clear
4:48 AM 57.9 °F 10.9 °F 16% 30.18 in 10.0 mi East 23.0 mph 29.9 mph N/A   Clear
5:48 AM 57.9 °F 12.0 °F 16% 30.19 in 10.0 mi East 24.2 mph - N/A   Clear
6:48 AM 57.0 °F 10.9 °F 16% 30.20 in 10.0 mi East 21.9 mph 28.8 mph N/A   Clear
7:48 AM 59.0 °F 12.0 °F 16% 30.20 in 10.0 mi East 24.2 mph - N/A   Clear
8:48 AM 60.1 °F 12.0 °F 15% 30.21 in 10.0 mi ENE 21.9 mph - N/A   Clear
9:48 AM 63.0 °F 12.0 °F 14% 30.21 in 10.0 mi East 24.2 mph 32.2 mph N/A   Clear
10:48 AM 64.0 °F 12.0 °F 13% 30.20 in 10.0 mi East 20.7 mph 27.6 mph N/A   Clear
11:48 AM 64.9 °F 12.0 °F 13% 30.17 in 10.0 mi ENE 16.1 mph 23.0 mph N/A   Clear
12:48 PM 66.0 °F 12.0 °F 12% 30.14 in 10.0 mi East 19.6 mph 23.0 mph N/A   Clear
1:48 PM 66.9 °F 12.0 °F 12% 30.12 in 10.0 mi East 16.1 mph 21.9 mph N/A   Clear
2:48 PM 64.0 °F 12.0 °F 13% 30.11 in 10.0 mi ENE 15.0 mph - N/A   Clear
3:48 PM 62.1 °F 12.0 °F 14% 30.12 in 10.0 mi ENE 16.1 mph - N/A   Clear
4:48 PM 61.0 °F 12.0 °F 15% 30.10 in 10.0 mi ENE 17.3 mph 21.9 mph N/A   Clear
5:48 PM 59.0 °F 12.9 °F 16% 30.10 in 10.0 mi ENE 13.8 mph - N/A   Clear
6:48 PM 60.1 °F 12.0 °F 15% 30.10 in 10.0 mi ENE 13.8 mph - N/A   Clear
7:48 PM 60.1 °F 12.9 °F 16% 30.10 in 10.0 mi East 13.8 mph - N/A   Clear
8:48 PM 60.1 °F 12.9 °F 16% 30.11 in 10.0 mi ENE 11.5 mph - N/A   Clear
9:48 PM 60.1 °F 12.9 °F 16% 30.08 in 10.0 mi ENE 13.8 mph - N/A   Clear
10:48 PM 60.1 °F 12.9 °F 16% 30.06 in 10.0 mi East 13.8 mph - N/A   Clear
11:48 PM 57.9 °F 12.9 °F 17% 30.05 in 10.0 mi NE 5.8 mph - N/A   Clear